This is the latest recevied weather packets stored in our database for station/object K0QED. If no packets are shown the sender has not sent any weather packets the latest 10 day(s).
| Time | Temp. | Humidity | Pressure | Rain* | Wind** | Luminosity | Snow |
|---|---|---|---|---|---|---|---|
| 1777081649 | 12.22° C | 14% | 1009.7 hPa | 0 mm | - | 0 W/m² | - |
| 1777081346 | 12.78° C | 14% | 1009.6 hPa | 0 mm | - | 2 W/m² | - |
| 1777081042 | 12.78° C | 13% | 1009.6 hPa | 0 mm | - | 2 W/m² | - |
| 1777080741 | 13.33° C | 13% | 1009.7 hPa | 0 mm | - | 4 W/m² | - |
| 1777080437 | 13.33° C | 13% | 1009.5 hPa | 0 mm | - | 7 W/m² | - |
| 1777080131 | 13.33° C | 13% | 1009.6 hPa | 0 mm | - | 10 W/m² | - |
| 1777079830 | 13.89° C | 13% | 1009.6 hPa | 0 mm | - | 12 W/m² | - |
| 1777079525 | 13.89° C | 12% | 1009.6 hPa | 0 mm | - | 17 W/m² | - |
| 1777079221 | 14.44° C | 13% | 1009.6 hPa | 0 mm | - | 22 W/m² | - |
| 1777078917 | 14.44° C | 12% | 1009.5 hPa | 0 mm | - | 23 W/m² | - |
| 1777078614 | 15° C | 12% | 1009.4 hPa | 0 mm | - | 29 W/m² | - |
| 1777078311 | 15° C | 12% | 1009.5 hPa | 0 mm | - | 40 W/m² | - |
| 1777078005 | 15° C | 11% | 1009.4 hPa | 0 mm | - | 42 W/m² | - |
| 1777077701 | 15° C | 11% | 1009.6 hPa | 0 mm | - | 48 W/m² | - |
| 1777077398 | 15° C | 11% | 1009.5 hPa | 0 mm | - | 46 W/m² | - |
| 1777077097 | 15° C | 10% | 1009.5 hPa | 0 mm | - | 48 W/m² | - |
| 1777076792 | 15.56° C | 10% | 1009.5 hPa | 0 mm | - | 54 W/m² | - |
| 1777076488 | 15.56° C | 10% | 1009.2 hPa | 0 mm | - | 61 W/m² | - |
| 1777076183 | 15.56° C | 10% | 1009.4 hPa | 0 mm | - | 65 W/m² | - |
| 1777075880 | 15.56° C | 10% | 1009.5 hPa | 0 mm | - | 71 W/m² | - |
| 1777075575 | 15.56° C | 10% | 1009.2 hPa | 0 mm | - | 76 W/m² | - |
| 1777075272 | 15.56° C | 10% | 1009 hPa | 0 mm | - | 89 W/m² | - |
* Rain latest hour (hover to see other rain measurements)
** Current wind speed in m/s (hover to see current wind gust speed)